{"data":{"norad_id":64345,"epoch":"2026-09-20T09:33:02.966400Z","epoch_age_seconds":143190,"freshness":"FRESH","line1":"1 64345U 25126B   26263.39795100  .00009408  00000+0  32298-3 0  9998","line2":"2 64345  70.0008 261.2789 0003171 271.7283  88.3529 15.30410014 69904","mean_motion":15.30410014,"eccentricity":0.0003171,"inclination_deg":70.0008,"raan_deg":261.2789,"arg_perigee_deg":271.7283,"mean_anomaly_deg":88.3529,"bstar":0.00032298,"rev_number":6990,"period_min":94.092431886034,"perigee_km":472.41507805828,"apogee_km":476.76107630223,"semimajor_km":6852.7250771803,"source":"CELESTRAK","updated_at":"2026-09-21T09:00:35.315681Z"}}